TimeMST,TemperatureF,Dew PointF,Humidity,Sea Level PressureIn,VisibilityMPH,Wind Direction,Wind SpeedMPH,Gust SpeedMPH,PrecipitationIn,Events,Conditions,WindDirDegrees,DateUTC
12:08 AM,8.6,5.0,85,30.20,1.8,North,10.4,-,0.00,Snow,Light Snow,360,2013-01-16 07:08:00
12:17 AM,8.6,5.0,85,30.20,2.5,North,10.4,-,0.00,Snow,Light Snow,10,2013-01-16 07:17:00
12:36 AM,8.6,3.2,79,30.20,6.0,North,10.4,-,0.00,Snow,Light Snow,10,2013-01-16 07:36:00
12:53 AM,8.1,3.9,83,30.32,10.0,NNE,9.2,-,0.00,,Overcast,30,2013-01-16 07:53:00
1:04 AM,6.8,3.2,85,30.21,10.0,NE,6.9,-,N/A,,Overcast,40,2013-01-16 08:04:00
1:53 AM,7.0,3.9,87,30.34,10.0,NE,11.5,-,N/A,,Overcast,50,2013-01-16 08:53:00
2:23 AM,8.6,5.0,85,30.23,10.0,North,13.8,-,N/A,,Overcast,360,2013-01-16 09:23:00
2:53 AM,8.1,5.0,87,30.32,10.0,NNE,8.1,-,N/A,,Overcast,30,2013-01-16 09:53:00
3:02 AM,6.8,3.2,85,30.23,10.0,NE,6.9,-,N/A,,Mostly Cloudy,40,2013-01-16 10:02:00
3:12 AM,6.8,3.2,85,30.23,10.0,NNE,8.1,-,N/A,,Scattered Clouds,20,2013-01-16 10:12:00
3:53 AM,6.1,3.9,91,30.36,10.0,North,5.8,-,N/A,,Clear,360,2013-01-16 10:53:00
4:11 AM,6.8,3.2,85,30.22,10.0,North,9.2,-,N/A,,Mostly Cloudy,360,2013-01-16 11:11:00
4:38 AM,8.6,6.8,92,30.21,10.0,NNE,10.4,-,N/A,,Mostly Cloudy,20,2013-01-16 11:38:00
4:46 AM,10.4,6.8,85,30.20,10.0,North,9.2,-,N/A,,Partly Cloudy,10,2013-01-16 11:46:00
4:53 AM,10.0,7.0,87,30.32,10.0,North,9.2,-,N/A,,Partly Cloudy,10,2013-01-16 11:53:00
5:53 AM,12.0,9.0,88,30.32,10.0,North,21.9,26.5,N/A,,Clear,360,2013-01-16 12:53:00
6:53 AM,12.9,10.9,92,30.31,10.0,North,16.1,24.2,N/A,,Clear,350,2013-01-16 13:53:00
7:53 AM,12.0,9.0,88,30.32,10.0,NE,4.6,-,N/A,,Clear,50,2013-01-16 14:53:00
8:53 AM,16.0,10.0,77,30.33,10.0,North,8.1,-,N/A,,Clear,10,2013-01-16 15:53:00
9:53 AM,21.0,12.0,68,30.31,10.0,North,8.1,-,N/A,,Clear,360,2013-01-16 16:53:00
10:53 AM,27.0,12.9,56,30.27,10.0,NNW,13.8,-,N/A,,Clear,340,2013-01-16 17:53:00
12:53 PM,30.0,15.1,54,30.23,10.0,NNW,10.4,-,N/A,,Clear,340,2013-01-16 19:53:00
1:53 PM,30.9,15.1,52,30.24,10.0,NW,10.4,16.1,N/A,,Clear,320,2013-01-16 20:53:00
2:53 PM,30.9,12.0,46,30.23,10.0,North,16.1,21.9,N/A,,Clear,360,2013-01-16 21:53:00
3:53 PM,30.0,12.0,47,30.25,10.0,North,12.7,-,N/A,,Clear,350,2013-01-16 22:53:00
4:53 PM,26.1,12.0,55,30.31,10.0,NW,8.1,-,N/A,,Clear,320,2013-01-16 23:53:00
5:53 PM,19.9,10.9,68,30.38,10.0,North,5.8,-,N/A,,Clear,10,2013-01-17 00:53:00
6:53 PM,18.0,10.9,74,30.36,10.0,NNE,10.4,-,N/A,,Clear,20,2013-01-17 01:53:00
7:53 PM,16.0,10.0,77,30.39,10.0,NNE,6.9,-,N/A,,Clear,30,2013-01-17 02:53:00
8:53 PM,15.1,8.1,74,30.41,10.0,NE,3.5,-,N/A,,Clear,40,2013-01-17 03:53:00
9:53 PM,10.9,7.0,84,30.40,10.0,NE,3.5,-,N/A,,Clear,50,2013-01-17 04:53:00
10:53 PM,10.9,6.1,81,30.38,10.0,NNE,5.8,-,N/A,,Clear,30,2013-01-17 05:53:00
11:53 PM,10.0,5.0,80,30.37,10.0,NE,8.1,-,N/A,,Clear,50,2013-01-17 06:53:00